Home > Weather > Taichung > Past weeks

Flag for Taiwan Past Weather in Taichung, Taiwan — Yesterday and Last 2 Weeks

Now
93 °F

Passing clouds.


Feels Like: 105 °F
Forecast: 86 / 100 °F
Wind: 26 mph from Northeast

Location: Chiang Kai Shek

Current Time: Jul 31, 2016 at 5:56:24 PM

Latest Report: Jul 31, 2016 at 5:00 PM


Visibility: N/A

Pressure: 29.62 "Hg

Humidity: 56%

Dew Point: 75 °F

Location of TaichungLocation

Past Weather in Taichung — Graph

°F

Taichung Temperature Yesterday

Maximum temperature yesterday: 97 °F (at 2:00 PM)
Minimum temperature yesterday: 82 °F (at 1:30 AM)
Average temperature yesterday: 89 °F

High & Low Weather Summary for the Past Weeks

 TemperatureHumidityPressure
High97 °F (Jul 28, 2:00 PM)94% (Jul 23, 1:30 AM)29.89 "Hg (Jul 23, 1:30 AM)
Low79 °F (Jul 19, 3:30 AM)47% (Jul 28, 11:00 AM)29.62 "Hg (Jul 31, 2:58 PM)
Average87 °F71%29.78 "Hg
* Reported Jul 16 4:00 PM — Jul 31 4:30 PM, Taichung, Weather by CustomWeather, © 2016

Note: Actual official high and low records may vary slightly from our data, if they occured in-between our weather recording intervals... More about our weather records

Advertising

Taichung Weather History for the Previous 24 Hours

Scroll right to see more
 ConditionsComfort  
Time TempWeatherWind HumidityBarometerVisibility
4:30 PM
Sun, Jul 31
95 °FPassing clouds.30 mph53%29.62 "HgN/A
4:00 PM93 °FPassing clouds.26 mph59%29.62 "HgN/A
3:30 PM93 °FPassing clouds.24 mph63%29.62 "HgN/A
3:00 PM91 °FScattered clouds.29 mph67%29.62 "HgN/A
2:58 PM91 °FScattered clouds.29 mph67%29.62 "HgN/A
2:30 PM93 °FScattered clouds.26 mph63%29.65 "HgN/A
2:00 PM93 °FPassing clouds.24 mph59%29.65 "HgN/A
1:30 PM93 °FScattered clouds.26 mph59%29.65 "HgN/A
1:03 PM93 °FPassing clouds.24 mph63%29.65 "HgN/A
12:30 PM93 °FPartly sunny.23 mph63%29.65 "HgN/A
12:00 PM91 °FPartly sunny.22 mph63%29.68 "HgN/A
11:30 AM91 °FPartly sunny.25 mph59%29.68 "HgN/A
11:00 AM93 °FPartly sunny.21 mph53%29.68 "HgN/A
10:30 AM93 °FScattered clouds.22 mph59%29.71 "HgN/A
10:00 AM91 °FScattered clouds.18 mph63%29.71 "HgN/A
9:30 AM91 °FScattered clouds.20 mph56%29.71 "HgN/A
9:00 AM91 °FScattered clouds.16 mph59%29.71 "HgN/A
8:30 AM90 °FPartly sunny.15 mph67%29.71 "HgN/A
8:00 AM90 °FScattered clouds.13 mph67%29.71 "HgN/A
7:30 AM88 °FScattered clouds.12 mph70%29.71 "HgN/A
7:00 AM88 °FScattered clouds.9 mph66%29.71 "HgN/A
6:30 AM86 °FScattered clouds.5 mph70%29.71 "HgN/A
6:00 AM84 °FScattered clouds.7 mph74%29.71 "HgN/A
5:30 AM84 °FScattered clouds.9 mph74%29.68 "HgN/A
5:00 AM84 °FPassing clouds.6 mph74%29.68 "HgN/A
4:30 AM84 °FPassing clouds.6 mph74%29.68 "HgN/A
4:00 AM84 °FPassing clouds.3 mph70%29.68 "HgN/A
3:30 AM84 °FPassing clouds.5 mph74%29.68 "HgN/A
3:00 AM84 °FPassing clouds.7 mph74%29.68 "HgN/A
2:30 AM84 °FPassing clouds.10 mph74%29.68 "HgN/A
2:00 AM86 °FPassing clouds.12 mph70%29.68 "HgN/A
1:30 AM86 °FPassing clouds.15 mph66%29.68 "HgN/A
1:00 AM86 °FPassing clouds.14 mph66%29.68 "HgN/A
12:30 AM86 °FPassing clouds.15 mph66%29.71 "HgN/A
12:00 AM86 °FPassing clouds.16 mph70%29.68 "HgN/A
11:30 PM
Sat, Jul 30
86 °FPassing clouds.18 mph66%29.71 "HgN/A
11:00 PM86 °FPassing clouds.21 mph66%29.71 "HgN/A
10:30 PM86 °FPassing clouds.22 mph66%29.71 "HgN/A
10:00 PM86 °FPassing clouds.22 mph66%29.71 "HgN/A
9:30 PM86 °FPassing clouds.21 mph70%29.71 "HgN/A
9:00 PM86 °FPassing clouds.18 mph70%29.71 "HgN/A
8:30 PM88 °FPassing clouds.17 mph66%29.71 "HgN/A
8:00 PM88 °FPassing clouds.16 mph66%29.71 "HgN/A
7:30 PM88 °FPassing clouds.17 mph66%29.68 "HgN/A
7:00 PM90 °FPassing clouds.17 mph63%29.68 "HgN/A
6:30 PM90 °FPassing clouds.18 mph63%29.68 "HgN/A
6:00 PM91 °FScattered clouds.21 mph59%29.68 "HgN/A
5:30 PM93 °FScattered clouds.18 mph56%29.68 "HgN/A
5:00 PM95 °FScattered clouds.23 mph50%29.65 "HgN/A
Weather by CustomWeather, © 2016

See weather overviewHow to use our weather pages